EW0171 Weather Reports


Display with metric or nautical units.
time (UTC)temp
F
wind
direction
speed
MPH
gust
MPH
rain 1hr
in
rain 24hr
in
rain mn
in
humidity
%
barometer
mb
20191212131550 0 117 0.0 0.0 0.00 0.00 0.00 1005.7
20191212130010 0 126 0.0 0.0 0.00 0.00 0.00 1005.9
20191212124506 0 138 0.0 0.0 0.00 0.00 0.00 1005.9
20191212123231 0 135 0.0 0.0 0.00 0.00 0.00 1005.9
20191212121712 0 145 0.0 0.0 0.00 0.00 0.00 1005.7
20191212120200 0 138 0.0 0.0 0.00 0.00 0.00 1006.0
20191212114740 0 136 0.0 0.0 0.00 0.00 0.00 1005.9
20191212113114 0 140 0.0 0.0 0.00 0.00 0.00 1006.1
20191212111758 0 152 0.0 0.0 0.00 0.00 0.00 1005.9
20191212110048 0 115 0.0 0.0 0.00 0.00 0.00 1005.7
20191212104618 0 105 0.0 0.0 0.00 0.00 0.00 1006.0
20191212103112 0 134 0.0 0.0 0.00 0.00 0.00 1006.3
20191212101603 0 134 0.0 0.0 0.00 0.00 0.00 1006.5
20191212100101 0 146 0.0 0.0 0.00 0.00 0.00 1006.2
20191212094514 0 118 0.0 0.0 0.00 0.00 0.00 1006.2
20191212093014 0 125 0.0 0.0 0.00 0.00 0.00 1006.3
20191212091511 0 125 0.0 0.0 0.00 0.00 0.00 1006.3
20191212090354 0 148 0.0 0.0 0.00 0.00 0.00 1006.5
20191212084833 0 134 0.0 0.0 0.00 0.00 0.00 1006.8
20191212083142 0 126 0.0 0.0 0.00 0.00 0.00 1006.5
20191212081718 0 139 0.0 0.0 0.00 0.00 0.00 1006.5
20191212080213 0 140 0.0 0.0 0.00 0.00 0.00 1006.4
20191212074556 0 134 0.0 0.0 0.00 0.00 0.00 1006.2
20191212073056 0 138 0.0 0.0 0.00 0.00 0.00 1006.2
20191212071728 0 121 0.0 0.0 0.00 0.00 0.00 1005.9
20191212070134 0 97 0.0 0.0 0.00 0.00 0.00 1005.8
20191212064530 0 125 0.0 0.0 0.00 0.00 0.00 1006.1
20191212063121 0 99 0.0 0.0 0.00 0.00 0.00 1005.9
20191212061515 0 125 0.0 0.0 0.00 0.00 0.00 1006.0
20191212060007 0 138 0.0 0.0 0.00 0.00 0.00 1006.4
20191212054848 0 140 0.0 0.0 0.00 0.00 0.00 1006.6
20191212053355 0 136 0.0 0.0 0.00 0.00 0.00 1007.0
20191212051653 0 136 0.0 0.0 0.00 0.00 0.00 1006.6
20191212050236 0 136 0.0 0.0 0.00 0.00 0.00 1006.6
20191212044640 0 257 0.0 0.0 0.00 0.00 0.00 1006.2
20191212043152 0 257 0.0 0.0 0.00 0.00 0.00 1006.7
20191212041650 0 257 0.0 0.0 0.00 0.00 0.00 1006.7
20191212040142 0 257 0.0 0.0 0.00 0.00 0.00 1007.0
20191212034539 0 257 0.0 0.0 0.00 0.00 0.00 1006.7
20191212033048 0 274 0.0 0.0 0.00 0.00 0.00 1006.5
20191212031610 0 274 0.0 0.0 0.00 0.00 0.00 1006.4
20191212030049 0 274 0.0 0.0 0.00 0.00 0.00 1006.4
20191212024511 0 274 0.0 0.0 0.00 0.00 0.00 1006.4
20191212023010 0 274 0.0 0.0 0.00 0.00 0.00 1006.4
20191212021658 0 274 0.0 0.0 0.00 0.00 0.00 1006.4
20191212020210 0 274 0.0 0.0 0.00 0.00 0.00 1006.4
20191212014701 0 274 0.0 0.0 0.00 0.00 0.00 1006.4
20191212013256 0 274 0.0 0.0 0.00 0.00 0.00 1006.4
20191212011610 0 274 0.0 0.0 0.00 0.00 0.00 1006.4
20191212010220 0 274 0.0 0.0 0.00 0.00 0.00 1006.3
20191212004545 0 274 0.0 0.0 0.00 0.00 0.00 1006.1
20191212003040 0 274 0.0 0.0 0.00 0.00 0.00 1006.0
20191212001539 0 274 0.0 0.0 0.00 0.00 0.00 1005.9
20191212000100 0 274 0.0 0.0 0.00 0.00 0.00 1005.7
20191211234555 0 277 0.0 0.0 0.00 0.00 0.00 1005.6
20191211233013 0 259 0.0 0.0 0.00 0.00 0.00 1005.4
20191211231507 0 259 0.0 0.0 0.00 0.00 0.00 1005.4
20191211230313 0 261 0.0 0.0 0.00 0.00 0.00 1005.3
20191211224723 0 261 0.0 0.0 0.00 0.00 0.00 1005.3
20191211223248 0 263 0.0 0.0 0.00 0.00 0.00 1005.1
20191211221646 0 263 0.0 0.0 0.00 0.00 0.00 1004.8
20191211220115 0 267 0.0 0.0 0.00 0.00 0.00 1004.7
20191211214711 0 267 0.0 0.0 0.00 0.00 0.00 1004.4
20191211213217 0 242 0.0 0.0 0.00 0.00 0.00 1004.2
20191211211653 0 277 0.0 0.0 0.00 0.00 0.00 1003.9
20191211210103 0 267 0.0 0.0 0.00 0.00 0.00 1003.7
20191211204536 0 262 0.0 0.0 0.00 0.00 0.00 1003.6
20191211203045 0 261 0.0 0.0 0.00 0.00 0.00 1003.4
20191211201522 0 253 0.0 0.0 0.00 0.00 0.00 1003.2
20191211200011 0 272 0.0 0.0 0.00 0.00 0.00 1002.9
20191211194527 0 269 0.0 0.0 0.00 0.00 0.00 1002.6
20191211193204 0 264 0.0 0.0 0.00 0.00 0.00 1002.3
20191211191629 0 248 0.0 0.0 0.00 0.00 0.00 1002.0
20191211190240 0 262 0.0 0.0 0.00 0.00 0.00 1001.8
20191211184625 0 265 0.0 0.0 0.00 0.00 0.00 1001.6
20191211183136 0 257 0.0 0.0 0.00 0.00 0.00 1001.5
20191211181626 0 265 0.0 0.0 0.00 0.00 0.00 1001.4
20191211180154 0 275 0.0 0.0 0.00 0.00 0.00 1001.3
20191211174656 0 288 0.0 0.0 0.00 0.00 0.00 1001.2
20191211173150 0 254 0.0 0.0 0.00 0.00 0.00 1000.8
20191211171540 0 261 0.0 0.0 0.00 0.00 0.00 1000.6
20191211170039 0 249 0.0 0.0 0.00 0.00 0.00 1000.7
20191211164527 0 257 0.0 0.0 0.00 0.00 0.00 1000.8
20191211163030 0 248 0.0 0.0 0.00 0.00 0.00 1000.8
20191211161649 0 234 0.0 0.0 0.00 0.00 0.00 1000.7
20191211160236 0 226 0.0 0.0 0.00 0.00 0.00 1000.5
20191211154639 0 285 0.0 0.0 0.00 0.00 0.00 1000.4
20191211153126 0 253 0.0 0.0 0.00 0.00 0.00 1000.3
20191211151642 0 254 0.0 0.0 0.00 0.00 0.00 999.8
20191211150151 0 259 0.0 0.0 0.00 0.00 0.00 999.7
20191211144653 0 256 0.0 0.0 0.00 0.00 0.00 999.8
20191211143213 0 232 0.0 0.0 0.00 0.00 0.00 999.5
20191211141642 0 236 0.0 0.0 0.00 0.00 0.00 999.3
20191211140138 0 228 0.0 0.0 0.00 0.00 0.00 999.4
20191211134555 0 218 0.0 0.0 0.00 0.00 0.00 998.6
20191211133047 0 258 0.0 0.0 0.00 0.00 0.00 998.8